Location: ?
(35.4214°N, 139.3011°E)
Time: 22:15:32
(UTC+00:00)

Ariane Rocket - Pass Details

Date: 14 July 2020
Orbit: 759 x 771 km, 98.7° (Epoch: 10 August)

Event Time Altitude Azimuth Distance (km) Brightness Sun altitude
Rises 10:35:24 0° 172° (S) 3,227 5.8 -7.3°
Reaches altitude 10° 10:37:43 10° 174° (S) 2,304 5.1 -7.7°
Maximum altitude 10:42:46 69° 258° (WSW) 822 3.4 -8.5°
Drops below altitude 10° 10:47:51 10° 342° (NNW) 2,313 6.4 -9.4°
Sets 10:50:11 0° 344° (NNW) 3,242 7.1 -9.8°
